Location: Pian di Sc�
(43.6333°N, 11.5500°E)
Time: 17:48:05
(UTC+00:00)

ATLAS CENTAUR R/B - Pass Details

Date: 07 August 2020
Orbit: 475 x 671 km, 64.7° (Epoch: 16 September)

Event Time Altitude Azimuth Distance (km) Brightness Sun altitude
Exits shadow 03:26:19 - 197° (SSW) 2,581 4.3 -7.8°
Reaches altitude 10° 03:28:07 10° 192° (SSW) 1,873 3.6 -7.5°
Maximum altitude 03:32:08 45° 119° (ESE) 756 2.3 -6.9°
Drops below altitude 10° 03:35:55 10° 47° (NE) 1,774 5.5 -6.3°
Sets 03:38:06 0° 41° (NE) 2,637 6.4 -6.0°
